Starlink 31311

operational
NORAD ID: 58948 Int'l Des: 2024-027 Owner: SPXS Country: US Constellation: starlink
LEOCIRCULAR

关于 Starlink 31311

正在加载描述...

实时位置

正在加载3D地球...

即将过境

高度历史

Altitude vs Time

uPlot chart will show altitude changes over time

两行轨道根数

1 58948U 24027T 25260.63151926 .00001888 00000-0 75843-4 0 9993
2 58948 53.1628 31.2406 0001124 107.9506 252.1617 15.30198551 90868
Epoch: Sep 17, 2025 • Age: 25 hours

当前状态

高度 490.3 km
速度 7.62 km/s
星下点 -42.72°S, 105.36°E
发射日期 Feb 10, 2024
运行时间 1.6 years
类型 internet

技术详情

分类 Payload
质量 730.00 kg
干质量 700.00 kg
总质量 730.00 kg
长度 0.30 m
直径 4.10 m
跨度 29.00 m
形状 Box + pan
制造商 SPXS
平台类型 Starlink V2M
阶段状态 In Orbit
所有者/国家 SPXS/US

大型星座

Loading constellations...